Burlington, VT

3:05 AM EDT on September 25, 2017 (GMT -0400)
Burlington International

Weather History for KBTV - January, 2013

Change the Weather History Date:

Monday, January 14, 2013

  Actual Average Record
Temperature  
Mean Temperature 42 °F 18 °F  
Max Temperature 49 °F 27 °F 60 °F (1995)
Min Temperature 35 °F 10 °F -26 °F (1914)
Degree Days  
Heating Degree Days 23 47  
Month to date heating degree days 549 643  
Since 1 July heating degree days 2954 3402  
Cooling Degree Days 0 0  
Month to date cooling degree days 0 0  
Year to date cooling degree days 0 0  
Moisture  
Dew Point 34 °F    
Average Humidity 66    
Maximum Humidity 86    
Minimum Humidity 45    
Precipitation  
Precipitation T in 0.06 in 1.03 in (2005)
Month to date precipitation 0.17 0.92  
Year to date precipitation 0.17 0.92  
Snow  
Snow 0.00 in 0.70 in 23.10 in (1934)
Month to date snowfall 5.5 9.5  
Since 1 July snowfall 40.0 32.8  
Snow Depth 0.00 in    
Sea Level Pressure  
Sea Level Pressure 30.02 in    
Wind  
Wind Speed 12 mph (West)    
Max Wind Speed 29 mph    
Max Gust Speed 36 mph    
Visibility 10 miles    
Events Rain    
T = Trace of Precipitation, MM = Missing Value Source: NWS Daily Summary

Daily Weather History Graph

Daily Weather History Graph

Search for Another Location

Airport or City:

Trip Planner

Search our weather history database for the weather conditions in past years. The results will help you decide how hot, cold, wet, or windy it might be!

Date:

Astronomy

Jan. 14, 2013 Rise Set
Actual Time 7:25 AM EST 4:38 PM EST
Civil Twilight 6:53 AM EST 5:10 PM EST
Nautical Twilight 6:17 AM EST 5:46 PM EST
Astronomical Twilight 5:42 AM EST 6:21 PM EST
Moon 8:48 AM EST (1/14) 8:31 PM EST (1/14)
Length of Visible Light 10h 16m
Length of Day
9h 12m
Waxing Crescent, 11% of the Moon is Illuminated
Jan 14
Waxing Crescent
Jan 18
First Quarter
Jan 26
Full
Feb 3
Last Quarter
Feb 10
New

Hourly Weather History & Observations

Time (EST) Temp. Windchill Dew Point Humidity Pressure Visibility Wind Dir Wind Speed Gust Speed Precip Events Conditions
12:01 AM 48.2 °F - 44.6 °F 87% 29.87 in 10.0 mi South 11.5 mph - N/A   Overcast
12:54 AM 48.0 °F - 44.1 °F 86% 29.86 in 10.0 mi South 10.4 mph 18.4 mph N/A   Overcast
1:54 AM 48.0 °F - 44.1 °F 86% 29.84 in 10.0 mi South 13.8 mph - N/A   Mostly Cloudy
2:54 AM 48.0 °F - 44.1 °F 86% 29.79 in 10.0 mi SSW 17.3 mph 24.2 mph N/A   Scattered Clouds
3:37 AM 46.4 °F 41.1 °F 42.8 °F 87% 29.79 in 9.0 mi SW 11.5 mph - N/A   Scattered Clouds
3:54 AM 46.9 °F - 43.0 °F 86% 29.80 in 9.0 mi South 12.7 mph - N/A   Overcast
4:40 AM 46.4 °F 39.5 °F 42.8 °F 87% 29.76 in 10.0 mi South 17.3 mph 24.2 mph N/A   Mostly Cloudy
4:54 AM 46.4 °F 38.3 °F 42.8 °F 87% 29.76 in 10.0 mi South 23.0 mph 32.2 mph N/A   Mostly Cloudy
5:54 AM 48.0 °F - 43.0 °F 83% 29.79 in 10.0 mi SSW 21.9 mph 33.4 mph N/A   Overcast
6:44 AM 46.4 °F 41.1 °F 42.8 °F 87% 29.87 in 9.0 mi SSW 11.5 mph 24.2 mph 0.00 in Rain Light Rain
6:54 AM 46.4 °F 40.4 °F 42.8 °F 87% 29.86 in 6.0 mi South 13.8 mph 21.9 mph N/A Rain Light Rain
7:06 AM 46.4 °F 40.4 °F 42.8 °F 87% 29.87 in 10.0 mi South 13.8 mph 19.6 mph 0.00 in   Overcast
7:54 AM 46.9 °F - 43.0 °F 86% 29.92 in 10.0 mi South 9.2 mph - 0.00 in   Mostly Cloudy
8:51 AM 46.4 °F 44.3 °F 42.8 °F 87% 29.97 in 10.0 mi NNW 4.6 mph - N/A   Mostly Cloudy
8:54 AM 46.9 °F - 43.0 °F 86% 29.98 in 10.0 mi Calm Calm - N/A   Mostly Cloudy
9:32 AM 48.2 °F - 39.2 °F 71% 30.01 in 10.0 mi NW 12.7 mph 21.9 mph N/A   Mostly Cloudy
9:54 AM 48.9 °F - 36.0 °F 61% 30.04 in 10.0 mi WNW 15.0 mph - N/A   Scattered Clouds
10:54 AM 46.9 °F - 33.1 °F 59% 30.04 in 10.0 mi NW 25.3 mph 32.2 mph N/A   Scattered Clouds
11:54 AM 46.0 °F 38.5 °F 30.9 °F 56% 30.09 in 10.0 mi NW 19.6 mph 26.5 mph N/A   Partly Cloudy
12:54 PM 45.0 °F 38.9 °F 25.0 °F 46% 30.13 in 10.0 mi NW 12.7 mph 23.0 mph N/A   Partly Cloudy
1:54 PM 45.0 °F 40.1 °F 26.1 °F 48% 30.15 in 10.0 mi WNW 9.2 mph 20.7 mph N/A   Mostly Cloudy
2:54 PM 42.1 °F 35.7 °F 24.1 °F 49% 30.19 in 10.0 mi WNW 11.5 mph 19.6 mph N/A   Mostly Cloudy
3:54 PM 41.0 °F 34.3 °F 23.0 °F 49% 30.21 in 10.0 mi NW 11.5 mph - N/A   Mostly Cloudy
4:54 PM 39.0 °F 32.8 °F 23.0 °F 53% 30.20 in 10.0 mi West 9.2 mph - N/A   Mostly Cloudy
5:54 PM 39.2 °F 34.2 °F 21.2 °F 49% 30.20 in 10.0 mi WNW 6.9 mph - N/A   Mostly Cloudy
6:54 PM 37.9 °F 33.5 °F 23.0 °F 55% 30.25 in 10.0 mi NNW 5.8 mph - N/A   Mostly Cloudy
7:54 PM 36.0 °F 31.1 °F 25.0 °F 64% 30.27 in 10.0 mi NNW 5.8 mph - N/A   Overcast
8:54 PM 37.0 °F 30.4 °F 19.0 °F 48% 30.29 in 10.0 mi WNW 9.2 mph - N/A   Overcast
9:54 PM 37.0 °F 31.0 °F 21.0 °F 52% 30.26 in 10.0 mi WNW 8.1 mph - N/A   Overcast
10:54 PM 36.0 °F 31.1 °F 21.0 °F 55% 30.27 in 10.0 mi WNW 5.8 mph - N/A   Mostly Cloudy
11:54 PM 35.1 °F 30.1 °F 21.9 °F 59% 30.30 in 10.0 mi West 5.8 mph - N/A   Overcast